This demonstration page uses our WeatherBlox Daily Observations layout. Learn more.

Left ArrowRight Arrow

39.01783, -85.05884

Hourly Observations for February 26, 2018

Temp ( °F °C ) Dew Point ( °F °C ) Humidity (%) Winds ( mph kmh ) Pressure ( in mb ) Visibility ( mi km ) Precip ( " mm )
12:52 am 00:52 Cloudy 38 3.3 34 1.1 86 86 Calm 30.19 1022 10 16 0.00 0.00
1:52 am 01:52 Cloudy 41 5 33 0.6 73 73 NNW 6 9 30.19 1023 10 16 0.00 0.00
2:52 am 02:52 Cloudy 40 4.4 33 0.6 77 77 N 5 7 30.20 1023 10 16 0.00 0.00
3:52 am 03:52 Mostly Cloudy 39 3.9 33 0.6 79 79 N 5 7 30.19 1022 10 16 0.00 0.00
4:52 am 04:52 Clear 35 1.7 32 0 89 89 N 5 7 30.20 1023 10 16 0.00 0.00
5:52 am 05:52 Clear 32 0 31 -0.6 96 96 Calm 30.22 1023 10 16 0.00 0.00
6:52 am 06:52 Mostly Clear 34 1.1 31 -0.6 89 89 Calm 30.24 1024 10 16 0.00 0.00
7:52 am 07:52 Mostly Sunny 34 1.1 30 -1.1 85 85 Calm 30.27 1025 10 16 0.00 0.00
8:52 am 08:52 Sunny 41 5 33 0.6 73 73 Calm 30.30 1026 10 16 0.00 0.00
9:52 am 09:52 Sunny 45 7.2 29 -1.7 54 54 Calm 30.30 1026 10 16 0.00 0.00
10:52 am 10:52 Sunny 48 8.9 23 -5 37 37 ENE 5 7 30.31 1026 10 16 0.00 0.00
11:52 am 11:52 Sunny 50 10 22 -5.6 33 33 Calm 30.31 1027 10 16 0.00 0.00
12:52 pm 12:52 Sunny 51 10.6 22 -5.6 32 32 E 5 7 30.30 1026 10 16 0.00 0.00
1:52 pm 13:52 Sunny 54 12.2 19 -7.2 25 25 Calm 30.29 1026 10 16 0.00 0.00
2:52 pm 14:52 Sunny 55 12.8 20 -6.7 25 25 Calm 30.29 1026 10 16 0.00 0.00
3:52 pm 15:52 Sunny 54 12.2 21 -6.1 28 28 Calm 30.29 1026 10 16 0.00 0.00
4:52 pm 16:52 Sunny 54 12.2 19 -7.2 25 25 WSW 5 7 30.29 1026 10 16 0.00 0.00
5:52 pm 17:52 Sunny 54 12.2 19 -7.2 25 25 Calm 30.30 1026 10 16 0.00 0.00
6:52 pm 18:52 Clear 50 10 20 -6.7 30 30 Calm 30.31 1027 10 16 0.00 0.00
7:52 pm 19:52 Clear 46 7.8 21 -6.1 37 37 Calm 30.33 1027 10 16 0.00 0.00
8:52 pm 20:52 Clear 44 6.7 20 -6.7 38 38 Calm 30.33 1027 10 16 0.00 0.00
9:52 pm 21:52 Clear 42 5.6 24 -4.4 49 49 Calm 30.34 1027 10 16 0.00 0.00
10:52 pm 22:52 Clear 39 3.9 25 -3.9 57 57 ESE 3 6 30.34 1028 10 16 0.00 0.00
11:52 pm 23:52 Clear 41 5 22 -5.6 47 47 SSE 3 6 30.35 1028 10 16 0.00 0.00

Powered by Vaisala Xweather